Dewpoint
59 60 60 61 62 63 65 66 67 67 68 70 70 71 72 73 73 69 68 71 67 67 66 68 73 74 74 75 75 75 75 73 73
57 59 60 61 62 63 65 66 67 68 69 70 70 69 71 72 72 72 70 72 72 68 72 67 71 73 74 74 74 75 75 73 74
54 58 60 61 61 62 64 64 66 67 68 69 70 70 70 70 71 72 72 72 72 72 70 71 70 73 73 73 74 75 75 73 74
49 56 59 60 62 63 64 64 65 66 67 69 69 69 70 70 70 70 71 71 71 72 71 72 72 73 73 73 73 74 75 75 74
47 54 58 60 61 62 63 64 65 65 66 66 68 69 70 70 71 71 70 71 71 73 73 72 72 73 73 73 73 73 74 73 72
45 54 56 59 58 61 62 64 65 64 66 64 65 68 68 69 70 70 71 72 72 72 72 73 71 72 73 73 73 73 73 73 73
37 45 55 58 59 62 64 65 67 67 66 65 65 66 67 69 70 70 70 72 73 72 73 73 72 72 73 73 72 73 73 73 73
51 50 45 55 59 62 64 66 67 67 67 68 67 68 68 69 71 71 72 72 73 73 73 73 73 73 72 72 71 69 72 73 73
58 59 59 56 52 61 63 64 66 67 67 68 69 69 69 70 72 72 72 73 73 74 73 73 74 73 72 72 69 65 66 71 72
58 59 61 62 61 53 62 62 66 66 68 68 69 70 70 71 72 72 73 73 74 74 74 73 74 73 72 73 74 64 64 67 71
57 60 61 63 63 57 59 60 61 66 67 70 70 70 71 72 72 72 73 73 73 74 73 74 73 73 74 74 73 64 63 65 72
50 58 62 65 65 60 61 63 65 67 68 69 69 70 71 71 72 72 73 73 73 73 72 73 73 73 74 74 74 63 62 65 72
53 60 63 66 64 58 62 65 64 66 66 68 69 70 71 72 72 73 73 74 74 74 73 73 71 71 74 71 74 64 61 64 70
58 62 64 67 64 64 66 66 65 67 68 68 69 69 70 72 73 73 74 75 75 74 73 73 73 73 74 74 73 74 60 59 71
57 60 64 66 67 65 65 67 67 68 69 71 72 72 72 73 74 71 71 75 74 74 75 74 74 74 73 73 74 66 62 58 60
55 58 62 65 66 68 69 67 67 68 70 71 72 73 74 73 74 73 75 74 74 72 74 71 72 71 71 71 72 74 61 58 57
48 55 61 65 66 67 68 70 71 72 72 71 71 72 73 73 73 73 74 72 72 71 71 71 71 71 71 71 72 73 74 72 68
49 52 59 63 65 66 67 69 69 70 71 73 71 71 70 71 71 72 72 73 71 71 73 69 71 71 71 71 71 72 68 70 73
51 52 57 57 56 63 66 67 67 68 68 68 70 70 71 70 69 70 70 71 67 48 49 49 50 53 64 72 60 56 54 52 54
50 52 55 56 55 56 60 64 63 62 64 68 69 68 69 68 72 74 72 71 68 68 57 46 44 44 51 52 59 53 50 48 48
Lifted_Index
-4 -4 -3 -3 -3 -2 -2 -3 -2 -2 -2 -2 -2 -2 -2 -2 -2 -2 -2 -2 -2 -2 -2 -2 -3 -4 -4 -4 -5 -5 -5 -5 -5
-4 -4 -4 -3 -3 -2 -2 -3 -3 -2 -2 -2 -2 -2 -2 -2 -2 -2 -2 -2 -2 -2 -2 -2 -2 -3 -4 -4 -5 -5 -5 -5 -5
-3 -4 -4 -4 -3 -3 -3 -3 -3 -3 -2 -2 -2 -2 -2 -2 -2 -2 -3 -3 -2 -2 -2 -2 -2 -3 -4 -4 -5 -5 -5 -5 -5
-2 -3 -4 -4 -4 -3 -3 -3 -3 -3 -2 -2 -2 -2 -2 -2 -2 -2 -2 -2 -2 -2 -2 -2 -2 -3 -3 -4 -5 -5 -5 -5 -5
-1 -2 -4 -4 -4 -4 -4 -4 -3 -3 -2 -2 -2 -2 -2 -2 -2 -2 -2 -2 -2 -2 -2 -2 -2 -3 -3 -4 -4 -5 -5 -5 -5
1 -1 -3 -4 -4 -5 -5 -4 -4 -3 -3 -2 -2 -2 -2 -2 -2 -2 -2 -2 -2 -2 -2 -2 -2 -3 -3 -4 -4 -5 -5 -5 -5
2 1 -1 -3 -4 -4 -5 -5 -5 -4 -3 -3 -2 -2 -2 -2 -2 -2 -2 -2 -2 -2 -2 -2 -3 -3 -3 -4 -4 -4 -5 -5 -6
1 1 -0 -2 -3 -4 -4 -5 -5 -5 -4 -3 -3 -3 -3 -3 -3 -3 -3 -3 -3 -3 -2 -3 -3 -3 -3 -4 -4 -4 -4 -5 -5
-0 -1 -1 -1 -2 -2 -4 -5 -5 -5 -5 -4 -3 -3 -3 -3 -3 -3 -3 -3 -3 -3 -3 -3 -3 -3 -3 -3 -3 -3 -3 -4 -5
-0 -1 -2 -2 -1 -1 -3 -4 -5 -5 -5 -5 -4 -4 -4 -4 -4 -4 -4 -4 -4 -4 -3 -3 -3 -3 -3 -4 -4 -3 -2 -3 -4
1 0 -1 -2 -2 -1 -2 -3 -5 -5 -6 -5 -5 -4 -4 -4 -4 -4 -4 -4 -4 -4 -4 -4 -4 -4 -4 -4 -4 -3 -2 -3 -3
0 -0 -1 -2 -2 -1 -2 -3 -5 -5 -6 -6 -5 -5 -4 -4 -4 -4 -4 -4 -4 -4 -4 -4 -4 -4 -4 -4 -4 -3 -3 -3 -3
-2 -1 -1 -2 -2 -2 -3 -4 -5 -5 -6 -6 -6 -5 -5 -5 -5 -5 -5 -5 -5 -5 -5 -4 -4 -4 -4 -5 -5 -4 -4 -3 -4
-3 -2 -2 -3 -3 -3 -3 -4 -5 -5 -6 -6 -6 -6 -5 -5 -5 -5 -5 -6 -6 -6 -6 -6 -5 -5 -5 -6 -5 -5 -5 -4 -4
-4 -3 -3 -3 -3 -4 -4 -5 -5 -6 -6 -6 -7 -7 -6 -6 -6 -6 -6 -6 -7 -7 -7 -7 -7 -7 -7 -7 -7 -6 -6 -5 -5
-4 -4 -4 -4 -4 -4 -5 -5 -6 -6 -6 -7 -7 -7 -7 -7 -7 -7 -7 -7 -7 -7 -7 -7 -7 -7 -7 -8 -8 -8 -7 -7 -6
-4 -4 -4 -4 -4 -5 -5 -6 -6 -7 -7 -7 -7 -7 -7 -7 -7 -7 -8 -8 -8 -8 -8 -8 -8 -8 -8 -8 -8 -8 -8 -8 -7
-1 -2 -3 -4 -4 -5 -5 -5 -6 -6 -7 -7 -7 -7 -7 -7 -7 -7 -8 -8 -8 -8 -8 -8 -8 -8 -8 -8 -9 -9 -8 -8 -8
3 2 0 -1 -2 -3 -4 -4 -4 -5 -5 -6 -6 -6 -7 -7 -7 -7 -7 -8 -8 -8 -8 -8 -8 -8 -8 -8 -8 -8 -8 -8 -8
7 6 4 2 0 -1 -2 -3 -3 -3 -3 -4 -5 -5 -6 -6 -7 -7 -7 -8 -8 -7 -8 -8 -8 -8 -8 -8 -8 -8 -8 -8 -8